| time (UTC) | temp F | wind direction | speed knots | gust knots | rain 1hr in | rain 24hr in | rain mn in | humidity % | barometer mb |
| 20260906094844 | 87 | 330 | 10.4 | 0.0 | 0.00 | 0.00 | 0.00 | 38 | 1016.0 |
| 20260906093344 | 86 | 330 | 10.4 | 0.0 | 0.00 | 0.00 | 0.00 | 38 | 1016.0 |
| 20260906091844 | 85 | 320 | 10.4 | 0.0 | 0.00 | 0.00 | 0.00 | 42 | 1017.0 |
| 20260906090343 | 84 | 320 | 9.6 | 0.0 | 0.00 | 0.00 | 0.00 | 43 | 1016.0 |
| 20260906084843 | 86 | 320 | 9.6 | 0.0 | 0.00 | 0.00 | 0.00 | 37 | 1016.0 |
| 20260906083343 | 84 | 320 | 9.6 | 0.0 | 0.00 | 0.00 | 0.00 | 41 | 1016.0 |
| 20260906081843 | 83 | 340 | 9.6 | 0.0 | 0.00 | 0.00 | 0.00 | 44 | 1017.0 |
| 20260906080342 | 83 | 340 | 9.6 | 0.0 | 0.00 | 0.00 | 0.00 | 43 | 1017.0 |
| 20260906074842 | 83 | 313 | 4.3 | 7.8 | 0.00 | 0.00 | 0.00 | 42 | 1016.0 |
| 20260906073342 | 80 | 350 | 3.5 | 0.0 | 0.00 | 0.00 | 0.00 | 48 | 1016.0 |
| 20260906071841 | 78 | 360 | 3.5 | 0.0 | 0.00 | 0.00 | 0.00 | 55 | 1017.0 |
| 20260906070341 | 78 | 0 | 2.6 | 0.0 | 0.00 | 0.00 | 0.00 | 55 | 1016.0 |
| 20260906064841 | 77 | 0 | 2.6 | 0.0 | 0.00 | 0.00 | 0.00 | 61 | 1016.0 |
| 20260906063341 | 77 | 0 | 2.6 | 0.0 | 0.00 | 0.00 | 0.00 | 59 | 1016.0 |
| 20260906061840 | 78 | 0 | 2.6 | 0.0 | 0.00 | 0.00 | 0.00 | 57 | 1016.0 |
| 20260906060340 | 78 | 0 | 2.6 | 0.0 | 0.00 | 0.00 | 0.00 | 58 | 1016.0 |
| 20260906054840 | 78 | 320 | 4.3 | 0.0 | 0.00 | 0.00 | 0.00 | 57 | 1016.0 |
| 20260906053340 | 77 | 320 | 4.3 | 0.0 | 0.00 | 0.00 | 0.00 | 58 | 1016.0 |
| 20260906051839 | 76 | 0 | 1.7 | 0.0 | 0.00 | 0.00 | 0.00 | 61 | 1016.0 |
| 20260906050339 | 75 | 0 | 1.7 | 0.0 | 0.00 | 0.00 | 0.00 | 62 | 1016.0 |
| 20260906044839 | 73 | 0 | 2.6 | 0.0 | 0.00 | 0.00 | 0.00 | 56 | 1016.0 |
| 20260906043338 | 72 | 0 | 2.6 | 0.0 | 0.00 | 0.00 | 0.00 | 45 | 1016.0 |
| 20260906041838 | 72 | 0 | 1.7 | 0.0 | 0.00 | 0.00 | 0.00 | 45 | 1016.0 |
| 20260906040338 | 72 | 0 | 1.7 | 0.0 | 0.00 | 0.00 | 0.00 | 46 | 1015.0 |
| 20260906034838 | 72 | 0 | 1.7 | 0.0 | 0.00 | 0.00 | 0.00 | 46 | 1015.0 |
| 20260906033337 | 73 | 0 | 1.7 | 0.0 | 0.00 | 0.00 | 0.00 | 46 | 1015.0 |
| 20260906031837 | 73 | 310 | 3.5 | 0.0 | 0.00 | 0.00 | 0.00 | 46 | 1015.0 |
| 20260906030337 | 73 | 343 | 7.0 | 9.6 | 0.00 | 0.00 | 0.00 | 44 | 1015.0 |
| 20260906024837 | 73 | 300 | 3.5 | 0.0 | 0.00 | 0.00 | 0.00 | 46 | 1015.0 |
| 20260906023336 | 74 | 300 | 3.5 | 0.0 | 0.00 | 0.00 | 0.00 | 45 | 1015.0 |
| 20260906021836 | 75 | 300 | 3.5 | 0.0 | 0.00 | 0.00 | 0.00 | 44 | 1016.0 |
| 20260906020336 | 75 | 300 | 3.5 | 0.0 | 0.00 | 0.00 | 0.00 | 43 | 1016.0 |
| 20260906014835 | 75 | 320 | 3.5 | 0.0 | 0.00 | 0.00 | 0.00 | 42 | 1015.0 |
| 20260906013337 | 75 | 320 | 3.5 | 0.0 | 0.00 | 0.00 | 0.00 | 42 | 1015.0 |
| 20260906011835 | 75 | 320 | 3.5 | 0.0 | 0.00 | 0.00 | 0.00 | 42 | 1016.0 |
| 20260906004834 | 76 | 310 | 3.5 | 0.0 | 0.00 | 0.00 | 0.00 | 43 | 1015.0 |
| 20260906003334 | 76 | 310 | 3.5 | 0.0 | 0.00 | 0.00 | 0.00 | 43 | 1015.0 |
| 20260906001834 | 76 | 310 | 3.5 | 0.0 | 0.00 | 0.00 | 0.00 | 43 | 1016.0 |
| 20260906000334 | 76 | 4 | 0.9 | 0.9 | 0.00 | 0.00 | 0.00 | 43 | 1015.0 |
| 20260905234834 | 76 | 355 | 0.9 | 1.7 | 0.00 | 0.00 | 0.00 | 43 | 1015.0 |
| 20260905233333 | 76 | 360 | 0.9 | 4.3 | 0.00 | 0.00 | 0.00 | 43 | 1015.0 |
| 20260905231833 | 76 | 343 | 8.7 | 10.4 | 0.00 | 0.00 | 0.00 | 42 | 1015.0 |
| 20260905230333 | 77 | 343 | 8.7 | 10.4 | 0.00 | 0.00 | 0.00 | 42 | 1016.0 |
| 20260905224832 | 78 | 0 | 1.7 | 0.0 | 0.00 | 0.00 | 0.00 | 42 | 1015.0 |
| 20260905223332 | 78 | 357 | 0.9 | 3.5 | 0.00 | 0.00 | 0.00 | 39 | 1015.0 |
| 20260905221832 | 79 | 360 | 1.7 | 7.0 | 0.00 | 0.00 | 0.00 | 37 | 1015.0 |
| 20260905220332 | 79 | 360 | 3.5 | 7.0 | 0.00 | 0.00 | 0.00 | 35 | 1016.0 |
| 20260905214831 | 79 | 310 | 3.5 | 0.0 | 0.00 | 0.00 | 0.00 | 35 | 1015.0 |
| 20260905213331 | 79 | 310 | 3.5 | 0.0 | 0.00 | 0.00 | 0.00 | 36 | 1015.0 |
| 20260905211831 | 78 | 310 | 3.5 | 0.0 | 0.00 | 0.00 | 0.00 | 41 | 1016.0 |
| 20260905210330 | 79 | 280 | 5.2 | 0.0 | 0.00 | 0.00 | 0.00 | 43 | 1015.0 |
| 20260905204830 | 80 | 280 | 5.2 | 0.0 | 0.00 | 0.00 | 0.00 | 44 | 1015.0 |
| 20260905203330 | 80 | 280 | 5.2 | 0.0 | 0.00 | 0.00 | 0.00 | 38 | 1015.0 |
| 20260905201830 | 80 | 280 | 5.2 | 0.0 | 0.00 | 0.00 | 0.00 | 39 | 1015.0 |
| 20260905200329 | 80 | 280 | 5.2 | 0.0 | 0.00 | 0.00 | 0.00 | 44 | 1015.0 |
| 20260905194829 | 81 | 290 | 7.8 | 0.0 | 0.00 | 0.00 | 0.00 | 39 | 1015.0 |
| 20260905193329 | 81 | 290 | 7.8 | 0.0 | 0.00 | 0.00 | 0.00 | 39 | 1015.0 |
| 20260905191829 | 81 | 290 | 7.8 | 0.0 | 0.00 | 0.00 | 0.00 | 39 | 1015.0 |
| 20260905190328 | 81 | 290 | 7.8 | 0.0 | 0.00 | 0.00 | 0.00 | 42 | 1015.0 |
| 20260905184828 | 81 | 290 | 7.8 | 0.0 | 0.00 | 0.00 | 0.00 | 42 | 1015.0 |
| 20260905183328 | 81 | 290 | 7.8 | 0.0 | 0.00 | 0.00 | 0.00 | 42 | 1015.0 |
| 20260905181828 | 81 | 310 | 5.2 | 0.0 | 0.00 | 0.00 | 0.00 | 44 | 1015.0 |
| 20260905180327 | 83 | 310 | 5.2 | 0.0 | 0.00 | 0.00 | 0.00 | 33 | 1015.0 |
| 20260905174827 | 83 | 300 | 7.8 | 0.0 | 0.00 | 0.00 | 0.00 | 36 | 1014.0 |
| 20260905173327 | 84 | 300 | 7.8 | 0.0 | 0.00 | 0.00 | 0.00 | 35 | 1014.0 |
| 20260905171827 | 84 | 300 | 5.2 | 0.0 | 0.00 | 0.00 | 0.00 | 33 | 1014.0 |
| 20260905170326 | 81 | 300 | 5.2 | 0.0 | 0.00 | 0.00 | 0.00 | 42 | 1014.0 |
| 20260905164821 | 83 | 310 | 7.8 | 0.0 | 0.00 | 0.00 | 0.00 | 37 | 1014.0 |
| 20260905163321 | 86 | 310 | 7.8 | 0.0 | 0.00 | 0.00 | 0.00 | 38 | 1014.0 |
| 20260905161821 | 87 | 310 | 7.8 | 0.0 | 0.00 | 0.00 | 0.00 | 37 | 1014.0 |
| 20260905160320 | 88 | 310 | 9.6 | 0.0 | 0.00 | 0.00 | 0.00 | 37 | 1013.0 |
| 20260905154820 | 88 | 310 | 9.6 | 0.0 | 0.00 | 0.00 | 0.00 | 38 | 1013.0 |
| 20260905153320 | 86 | 320 | 10.4 | 0.0 | 0.00 | 0.00 | 0.00 | 42 | 1013.0 |
| 20260905151820 | 88 | 320 | 10.4 | 0.0 | 0.00 | 0.00 | 0.00 | 46 | 1014.0 |
| 20260905150319 | 90 | 320 | 10.4 | 0.0 | 0.00 | 0.00 | 0.00 | 38 | 1014.0 |
| 20260905144814 | 90 | 320 | 11.3 | 0.0 | 0.00 | 0.00 | 0.00 | 36 | 1013.0 |
| 20260905143314 | 90 | 320 | 11.3 | 0.0 | 0.00 | 0.00 | 0.00 | 33 | 1013.0 |
| 20260905141814 | 89 | 320 | 11.3 | 0.0 | 0.00 | 0.00 | 0.00 | 32 | 1014.0 |
| 20260905140313 | 90 | 320 | 11.3 | 0.0 | 0.00 | 0.00 | 0.00 | 29 | 1014.0 |
| 20260905134813 | 89 | 320 | 11.3 | 0.0 | 0.00 | 0.00 | 0.00 | 30 | 1013.0 |
| 20260905133313 | 89 | 320 | 11.3 | 0.0 | 0.00 | 0.00 | 0.00 | 30 | 1013.0 |
| 20260905131813 | 89 | 320 | 11.3 | 0.0 | 0.00 | 0.00 | 0.00 | 30 | 1014.0 |
| 20260905130312 | 89 | 320 | 11.3 | 0.0 | 0.00 | 0.00 | 0.00 | 32 | 1014.0 |
| 20260905124812 | 90 | 320 | 11.3 | 0.0 | 0.00 | 0.00 | 0.00 | 28 | 1014.0 |
| 20260905123312 | 90 | 320 | 11.3 | 0.0 | 0.00 | 0.00 | 0.00 | 28 | 1014.0 |
| 20260905121812 | 88 | 310 | 10.4 | 0.0 | 0.00 | 0.00 | 0.00 | 35 | 1015.0 |
| 20260905120311 | 87 | 320 | 11.3 | 0.0 | 0.00 | 0.00 | 0.00 | 36 | 1014.0 |
| 20260905114811 | 89 | 320 | 11.3 | 0.0 | 0.00 | 0.00 | 0.00 | 33 | 1014.0 |
| 20260905113311 | 89 | 320 | 11.3 | 0.0 | 0.00 | 0.00 | 0.00 | 35 | 1014.0 |
| 20260905111811 | 86 | 320 | 12.2 | 0.0 | 0.00 | 0.00 | 0.00 | 40 | 1015.0 |
| 20260905110310 | 87 | 320 | 12.2 | 0.0 | 0.00 | 0.00 | 0.00 | 37 | 1015.0 |
| 20260905104810 | 86 | 320 | 12.2 | 0.0 | 0.00 | 0.00 | 0.00 | 39 | 1015.0 |
| 20260905103310 | 86 | 320 | 12.2 | 0.0 | 0.00 | 0.00 | 0.00 | 42 | 1015.0 |
| 20260905101810 | 85 | 320 | 9.6 | 0.0 | 0.00 | 0.00 | 0.00 | 44 | 1016.0 |
| 20260905100309 | 85 | 320 | 8.7 | 0.0 | 0.00 | 0.00 | 0.00 | 45 | 1015.0 |